TimeEDT,TemperatureF,Dew PointF,Humidity,Sea Level PressureIn,VisibilityMPH,Wind Direction,Wind SpeedMPH,Gust SpeedMPH,PrecipitationIn,Events,Conditions,WindDirDegrees,DateUTC
12:15 AM,62.6,50.0,63,30.15,10.0,ESE,3.5,-,N/A,,Clear,110,2013-06-20 04:15:00
12:35 AM,60.8,48.2,63,30.16,10.0,ESE,3.5,-,N/A,,Clear,120,2013-06-20 04:35:00
12:55 AM,60.8,48.2,63,30.16,10.0,Calm,Calm,-,N/A,,Clear,0,2013-06-20 04:55:00
1:15 AM,60.8,48.2,63,30.16,10.0,ESE,3.5,-,N/A,,Clear,110,2013-06-20 05:15:00
1:35 AM,60.8,50.0,68,30.16,10.0,ESE,3.5,-,N/A,,Clear,120,2013-06-20 05:35:00
1:55 AM,59.0,48.2,67,30.17,10.0,Calm,Calm,-,N/A,,Clear,0,2013-06-20 05:55:00
2:15 AM,59.0,48.2,67,30.17,10.0,Calm,Calm,-,N/A,,Clear,0,2013-06-20 06:15:00
2:35 AM,59.0,50.0,72,30.17,10.0,ESE,3.5,-,N/A,,Clear,110,2013-06-20 06:35:00
2:55 AM,57.2,50.0,77,30.17,10.0,Calm,Calm,-,N/A,,Clear,0,2013-06-20 06:55:00
3:15 AM,55.4,50.0,82,30.17,10.0,Calm,Calm,-,N/A,,Clear,0,2013-06-20 07:15:00
3:35 AM,53.6,50.0,88,30.17,10.0,Calm,Calm,-,N/A,,Clear,0,2013-06-20 07:35:00
3:55 AM,53.6,50.0,88,30.17,10.0,East,3.5,-,N/A,,Clear,100,2013-06-20 07:55:00
4:15 AM,53.6,50.0,88,30.18,10.0,Calm,Calm,-,N/A,,Clear,0,2013-06-20 08:15:00
4:35 AM,53.6,50.0,88,30.18,10.0,Calm,Calm,-,N/A,,Clear,0,2013-06-20 08:35:00
4:55 AM,53.6,50.0,88,30.18,10.0,Calm,Calm,-,N/A,,Clear,0,2013-06-20 08:55:00
5:15 AM,53.6,50.0,88,30.18,10.0,Calm,Calm,-,N/A,,Clear,0,2013-06-20 09:15:00
5:35 AM,53.6,50.0,88,30.19,10.0,Calm,Calm,-,N/A,,Clear,0,2013-06-20 09:35:00
5:55 AM,51.8,50.0,94,30.19,10.0,Calm,Calm,-,N/A,,Clear,0,2013-06-20 09:55:00
6:15 AM,51.8,50.0,94,30.19,10.0,Calm,Calm,-,N/A,,Clear,0,2013-06-20 10:15:00
6:35 AM,51.8,50.0,94,30.20,10.0,Calm,Calm,-,N/A,,Clear,0,2013-06-20 10:35:00
6:55 AM,53.6,50.0,88,30.20,10.0,Calm,Calm,-,N/A,,Clear,0,2013-06-20 10:55:00
7:15 AM,55.4,51.8,88,30.20,10.0,Calm,Calm,-,N/A,,Clear,0,2013-06-20 11:15:00
7:35 AM,59.0,51.8,77,30.20,10.0,Calm,Calm,-,N/A,,Clear,0,2013-06-20 11:35:00
7:55 AM,60.8,50.0,68,30.20,10.0,Calm,Calm,-,N/A,,Clear,0,2013-06-20 11:55:00
8:15 AM,60.8,51.8,72,30.21,10.0,Calm,Calm,-,N/A,,Clear,0,2013-06-20 12:15:00
8:35 AM,62.6,51.8,68,30.21,10.0,Calm,Calm,-,N/A,,Clear,0,2013-06-20 12:35:00
8:55 AM,64.4,51.8,64,30.22,10.0,Calm,Calm,-,N/A,,Clear,0,2013-06-20 12:55:00
9:15 AM,68.0,51.8,56,30.22,10.0,Calm,Calm,-,N/A,,Clear,0,2013-06-20 13:15:00
9:35 AM,68.0,51.8,56,30.22,10.0,Calm,Calm,-,N/A,,Clear,0,2013-06-20 13:35:00
9:55 AM,69.8,51.8,53,30.22,10.0,Calm,Calm,-,N/A,,Clear,0,2013-06-20 13:55:00
10:15 AM,71.6,51.8,50,30.22,10.0,Calm,Calm,-,N/A,,Clear,0,2013-06-20 14:15:00
10:35 AM,71.6,51.8,50,30.22,10.0,Calm,Calm,-,N/A,,Clear,0,2013-06-20 14:35:00
10:55 AM,73.4,53.6,50,30.22,10.0,Calm,Calm,-,N/A,,Clear,0,2013-06-20 14:55:00
11:15 AM,73.4,53.6,50,30.22,10.0,Calm,Calm,-,N/A,,Mostly Cloudy,0,2013-06-20 15:15:00
11:35 AM,75.2,53.6,47,30.21,10.0,Calm,Calm,-,N/A,,Scattered Clouds,0,2013-06-20 15:35:00
11:55 AM,77.0,53.6,44,30.21,10.0,Calm,Calm,-,N/A,,Clear,0,2013-06-20 15:55:00
12:15 PM,77.0,51.8,41,30.21,10.0,Calm,Calm,-,N/A,,Clear,0,2013-06-20 16:15:00
12:35 PM,78.8,51.8,39,30.21,-9999.0,Calm,Calm,-,N/A,,Scattered Clouds,0,2013-06-20 16:35:00
12:55 PM,78.8,53.6,42,30.21,-9999.0,SW,3.5,-,N/A,,Scattered Clouds,220,2013-06-20 16:55:00
1:15 PM,80.6,53.6,39,30.20,-9999.0,SW,3.5,-,N/A,,Mostly Cloudy,220,2013-06-20 17:15:00
1:35 PM,80.6,53.6,39,30.21,10.0,WSW,6.9,-,N/A,,Scattered Clouds,250,2013-06-20 17:35:00
1:55 PM,80.6,55.4,42,30.20,10.0,SSW,4.6,-,N/A,,Scattered Clouds,200,2013-06-20 17:55:00
2:15 PM,80.6,53.6,39,30.20,10.0,WNW,4.6,-,N/A,,Scattered Clouds,290,2013-06-20 18:15:00
2:35 PM,80.6,55.4,42,30.20,10.0,SSW,4.6,-,N/A,,Scattered Clouds,210,2013-06-20 18:35:00
2:55 PM,80.6,55.4,42,30.20,10.0,WNW,6.9,-,N/A,,Scattered Clouds,290,2013-06-20 18:55:00
3:15 PM,80.6,55.4,42,30.20,10.0,WNW,4.6,-,N/A,,Mostly Cloudy,300,2013-06-20 19:15:00
3:35 PM,80.6,55.4,42,30.20,10.0,Calm,Calm,-,N/A,,Scattered Clouds,0,2013-06-20 19:35:00
3:55 PM,78.8,59.0,51,30.19,10.0,West,3.5,-,N/A,,Scattered Clouds,260,2013-06-20 19:55:00
4:15 PM,80.6,59.0,48,30.19,10.0,WSW,3.5,-,N/A,,Mostly Cloudy,250,2013-06-20 20:15:00
4:35 PM,80.6,59.0,48,30.19,10.0,WSW,4.6,-,N/A,,Mostly Cloudy,250,2013-06-20 20:35:00
4:55 PM,80.6,57.2,45,30.18,10.0,Calm,Calm,-,N/A,,Scattered Clouds,0,2013-06-20 20:55:00
5:15 PM,82.4,57.2,42,30.18,10.0,West,3.5,-,N/A,,Clear,270,2013-06-20 21:15:00
5:35 PM,82.4,59.0,45,30.17,10.0,SSW,3.5,-,N/A,,Clear,210,2013-06-20 21:35:00
5:55 PM,80.6,57.2,45,30.17,10.0,West,3.5,-,N/A,,Clear,270,2013-06-20 21:55:00
6:15 PM,82.4,59.0,45,30.16,10.0,Calm,Calm,-,N/A,,Clear,0,2013-06-20 22:15:00
6:35 PM,80.6,57.2,45,30.16,10.0,Calm,Calm,-,N/A,,Clear,0,2013-06-20 22:35:00
6:55 PM,80.6,57.2,45,30.16,10.0,WSW,4.6,-,N/A,,Clear,250,2013-06-20 22:55:00
7:15 PM,80.6,57.2,45,30.16,10.0,Calm,Calm,-,N/A,,Clear,0,2013-06-20 23:15:00
7:35 PM,80.6,59.0,48,30.16,10.0,Calm,Calm,-,N/A,,Clear,0,2013-06-20 23:35:00
7:55 PM,78.8,59.0,51,30.16,10.0,Calm,Calm,-,N/A,,Clear,0,2013-06-20 23:55:00
8:15 PM,77.0,60.8,57,30.16,10.0,Calm,Calm,-,N/A,,Clear,0,2013-06-21 00:15:00
8:35 PM,75.2,62.6,65,30.16,10.0,Calm,Calm,-,N/A,,Clear,0,2013-06-21 00:35:00
8:55 PM,73.4,62.6,69,30.16,10.0,Calm,Calm,-,N/A,,Clear,0,2013-06-21 00:55:00
9:15 PM,73.4,62.6,69,30.16,10.0,Calm,Calm,-,N/A,,Clear,0,2013-06-21 01:15:00
9:35 PM,71.6,62.6,73,30.16,10.0,Calm,Calm,-,N/A,,Scattered Clouds,0,2013-06-21 01:35:00
9:55 PM,71.6,62.6,73,30.17,10.0,Calm,Calm,-,N/A,,Mostly Cloudy,0,2013-06-21 01:55:00
10:15 PM,69.8,62.6,78,30.17,10.0,Calm,Calm,-,N/A,,Scattered Clouds,0,2013-06-21 02:15:00
10:35 PM,69.8,62.6,78,30.18,10.0,East,3.5,-,N/A,,Clear,100,2013-06-21 02:35:00
10:55 PM,69.8,62.6,78,30.18,10.0,Calm,Calm,-,N/A,,Clear,0,2013-06-21 02:55:00
11:15 PM,68.0,60.8,78,30.19,10.0,Calm,Calm,-,N/A,,Scattered Clouds,0,2013-06-21 03:15:00
11:35 PM,68.0,60.8,78,30.19,10.0,Calm,Calm,-,N/A,,Scattered Clouds,0,2013-06-21 03:35:00
11:55 PM,71.6,60.8,69,30.19,10.0,ESE,3.5,-,N/A,,Scattered Clouds,110,2013-06-21 03:55:00